1998-067WQ

Last updated on Fri Aug 30 2024 00:02:08 GMT+0000 (Coordinated Universal Time)

1 59597U 98067WQ 24242.36608589 .11825883 12489-4 73111-3 0 9994 2 59597 51.6119 293.6951 0004995 311.9606 48.0994 16.41253926 20890

Satellite not in orbit